| time (UTC) | temp F | wind direction | speed knots | gust knots | rain 1hr in | rain 24hr in | rain mn in | humidity % | barometer mb |
| 20260504151021 | 65 | 360 | 2.6 | 12.2 | 0.00 | 0.00 | 0.00 | 44 | 1008.3 |
| 20260504150517 | 64 | 360 | 2.6 | 12.2 | 0.00 | 0.00 | 0.00 | 44 | 1008.4 |
| 20260504141020 | 59 | 360 | 1.7 | 11.3 | 0.00 | 0.00 | 0.00 | 54 | 1008.9 |
| 20260504140520 | 59 | 360 | 2.6 | 11.3 | 0.00 | 0.00 | 0.00 | 55 | 1009.0 |
| 20260504130521 | 51 | 360 | 0.9 | 4.3 | 0.00 | 0.00 | 0.00 | 64 | 1009.6 |
| 20260504110523 | 39 | 0 | 0.0 | 1.7 | 0.00 | 0.00 | 0.00 | 84 | 1010.7 |
| 20260504100520 | 37 | 0 | 0.0 | 0.0 | 0.00 | 0.00 | 0.00 | 89 | 1010.2 |
| 20260504081536 | 40 | 0 | 0.0 | 0.0 | 0.00 | 0.00 | 0.00 | 85 | 1010.1 |
| 20260504081024 | 40 | 0 | 0.0 | 0.0 | 0.00 | 0.00 | 0.00 | 85 | 1010.0 |
| 20260504080520 | 40 | 0 | 0.0 | 0.0 | 0.00 | 0.00 | 0.00 | 85 | 1010.1 |
| 20260504050519 | 39 | 0 | 0.0 | 0.0 | 0.00 | 0.00 | 0.00 | 84 | 1010.4 |
| 20260504045521 | 39 | 0 | 0.0 | 0.0 | 0.00 | 0.00 | 0.00 | 85 | 1010.5 |
| 20260504045021 | 39 | 0 | 0.0 | 0.0 | 0.00 | 0.00 | 0.00 | 85 | 1010.4 |
| 20260504044536 | 39 | 0 | 0.0 | 0.0 | 0.00 | 0.00 | 0.00 | 85 | 1010.4 |
| 20260504044022 | 39 | 0 | 0.0 | 0.0 | 0.00 | 0.00 | 0.00 | 86 | 1010.5 |
| 20260504043524 | 39 | 0 | 0.0 | 0.0 | 0.00 | 0.00 | 0.00 | 86 | 1010.6 |
| 20260504043035 | 39 | 0 | 0.0 | 0.0 | 0.00 | 0.00 | 0.00 | 86 | 1010.5 |
| 20260504042521 | 39 | 0 | 0.0 | 0.0 | 0.00 | 0.00 | 0.00 | 86 | 1010.4 |
| 20260504042021 | 39 | 0 | 0.0 | 0.0 | 0.00 | 0.00 | 0.00 | 86 | 1010.3 |
| 20260504041537 | 39 | 0 | 0.0 | 0.0 | 0.00 | 0.00 | 0.00 | 86 | 1010.3 |
| 20260504041020 | 39 | 0 | 0.0 | 0.0 | 0.00 | 0.00 | 0.00 | 86 | 1010.4 |
| 20260504040520 | 39 | 0 | 0.0 | 0.0 | 0.00 | 0.00 | 0.00 | 86 | 1010.3 |
| 20260504040041 | 39 | 0 | 0.0 | 0.0 | 0.00 | 0.00 | 0.00 | 85 | 1010.4 |
| 20260504035520 | 39 | 0 | 0.0 | 0.0 | 0.00 | 0.00 | 0.00 | 85 | 1010.3 |
| 20260504035023 | 39 | 0 | 0.0 | 0.0 | 0.00 | 0.00 | 0.00 | 86 | 1010.2 |
| 20260504034546 | 39 | 0 | 0.0 | 0.0 | 0.00 | 0.00 | 0.00 | 86 | 1010.2 |
| 20260504034025 | 39 | 0 | 0.0 | 0.0 | 0.00 | 0.00 | 0.00 | 85 | 1010.2 |
| 20260504033530 | 39 | 0 | 0.0 | 0.9 | 0.00 | 0.00 | 0.00 | 85 | 1010.1 |
| 20260504033041 | 39 | 0 | 0.0 | 1.7 | 0.00 | 0.00 | 0.00 | 84 | 1010.1 |
| 20260504032517 | 39 | 0 | 0.0 | 1.7 | 0.00 | 0.00 | 0.00 | 85 | 1010.0 |
| 20260504032018 | 39 | 360 | 0.0 | 1.7 | 0.00 | 0.00 | 0.00 | 86 | 1010.1 |
| 20260504031549 | 39 | 0 | 0.0 | 0.9 | 0.00 | 0.00 | 0.00 | 86 | 1009.9 |
| 20260504031017 | 39 | 0 | 0.0 | 0.9 | 0.00 | 0.00 | 0.00 | 84 | 1009.9 |
| 20260504030521 | 39 | 0 | 0.0 | 0.0 | 0.00 | 0.00 | 0.00 | 83 | 1009.9 |
| 20260504030040 | 39 | 0 | 0.0 | 0.9 | 0.00 | 0.00 | 0.00 | 84 | 1010.0 |
| 20260504025525 | 39 | 0 | 0.0 | 0.9 | 0.00 | 0.00 | 0.00 | 83 | 1009.9 |
| 20260504025021 | 39 | 0 | 0.0 | 0.9 | 0.00 | 0.00 | 0.00 | 82 | 1009.9 |
| 20260504024538 | 39 | 0 | 0.0 | 0.9 | 0.00 | 0.00 | 0.00 | 82 | 1009.9 |
| 20260504024024 | 39 | 0 | 0.0 | 0.9 | 0.00 | 0.00 | 0.00 | 82 | 1010.0 |
| 20260504023521 | 39 | 0 | 0.0 | 0.9 | 0.00 | 0.00 | 0.00 | 82 | 1010.0 |
| 20260504023040 | 39 | 0 | 0.0 | 0.9 | 0.00 | 0.00 | 0.00 | 81 | 1010.0 |
| 20260504022521 | 40 | 0 | 0.0 | 0.9 | 0.00 | 0.00 | 0.00 | 81 | 1010.0 |
| 20260504022017 | 40 | 0 | 0.0 | 0.9 | 0.00 | 0.00 | 0.00 | 80 | 1009.9 |
| 20260504021534 | 40 | 0 | 0.0 | 0.9 | 0.00 | 0.00 | 0.00 | 79 | 1009.8 |
| 20260504021020 | 40 | 360 | 0.0 | 0.9 | 0.00 | 0.00 | 0.00 | 78 | 1009.7 |
| 20260504020520 | 40 | 0 | 0.0 | 0.9 | 0.00 | 0.00 | 0.00 | 77 | 1009.7 |
| 20260504020040 | 41 | 0 | 0.0 | 0.9 | 0.00 | 0.00 | 0.00 | 75 | 1009.6 |
| 20260504015521 | 41 | 0 | 0.0 | 0.9 | 0.00 | 0.00 | 0.00 | 73 | 1009.6 |
| 20260504015018 | 41 | 0 | 0.0 | 0.9 | 0.00 | 0.00 | 0.00 | 74 | 1009.5 |
| 20260504014536 | 41 | 0 | 0.0 | 0.9 | 0.00 | 0.00 | 0.00 | 73 | 1009.5 |
| 20260504014020 | 42 | 0 | 0.0 | 0.9 | 0.00 | 0.00 | 0.00 | 72 | 1009.5 |
| 20260504013521 | 42 | 0 | 0.0 | 0.9 | 0.00 | 0.00 | 0.00 | 72 | 1009.5 |
| 20260504013032 | 42 | 0 | 0.0 | 0.9 | 0.00 | 0.00 | 0.00 | 71 | 1009.4 |
| 20260504012523 | 42 | 0 | 0.0 | 0.9 | 0.00 | 0.00 | 0.00 | 70 | 1009.4 |
| 20260504012021 | 43 | 0 | 0.0 | 0.9 | 0.00 | 0.00 | 0.00 | 68 | 1009.3 |
| 20260504011539 | 43 | 0 | 0.0 | 0.9 | 0.00 | 0.00 | 0.00 | 68 | 1009.3 |
| 20260504011021 | 43 | 0 | 0.0 | 0.0 | 0.00 | 0.00 | 0.00 | 65 | 1009.3 |
| 20260504010523 | 44 | 0 | 0.0 | 0.0 | 0.00 | 0.00 | 0.00 | 64 | 1009.2 |
| 20260504010041 | 44 | 0 | 0.0 | 0.9 | 0.00 | 0.00 | 0.00 | 64 | 1009.0 |
| 20260504005520 | 44 | 0 | 0.0 | 0.9 | 0.00 | 0.00 | 0.00 | 63 | 1009.0 |
| 20260504005020 | 45 | 0 | 0.0 | 0.9 | 0.00 | 0.00 | 0.00 | 55 | 1008.9 |
| 20260504004535 | 45 | 0 | 0.0 | 0.9 | 0.00 | 0.00 | 0.00 | 61 | 1008.8 |
| 20260504004019 | 46 | 0 | 0.0 | 0.9 | 0.00 | 0.00 | 0.00 | 60 | 1008.7 |
| 20260504003521 | 46 | 0 | 0.0 | 0.9 | 0.00 | 0.00 | 0.00 | 59 | 1008.7 |
| 20260504003043 | 47 | 0 | 0.0 | 0.9 | 0.00 | 0.00 | 0.00 | 56 | 1008.7 |
| 20260504002521 | 47 | 0 | 0.0 | 0.9 | 0.00 | 0.00 | 0.00 | 56 | 1008.6 |
| 20260504002022 | 48 | 0 | 0.0 | 0.9 | 0.00 | 0.00 | 0.00 | 55 | 1008.5 |
| 20260504001537 | 48 | 0 | 0.0 | 0.9 | 0.00 | 0.00 | 0.00 | 46 | 1008.4 |
| 20260504001021 | 49 | 0 | 0.0 | 0.9 | 0.00 | 0.00 | 0.00 | 54 | 1008.4 |
| 20260504000521 | 49 | 0 | 0.0 | 0.9 | 0.00 | 0.00 | 0.00 | 53 | 1008.3 |
| 20260504000035 | 50 | 0 | 0.0 | 0.9 | 0.00 | 0.00 | 0.00 | 53 | 1008.4 |
| 20260503235520 | 50 | 0 | 0.0 | 0.9 | 0.00 | 0.00 | 0.00 | 50 | 1008.3 |
| 20260503235021 | 50 | 0 | 0.0 | 1.7 | 0.00 | 0.00 | 0.00 | 47 | 1008.2 |
| 20260503234539 | 51 | 0 | 0.0 | 2.6 | 0.00 | 0.00 | 0.00 | 48 | 1008.2 |
| 20260503234021 | 51 | 0 | 0.0 | 2.6 | 0.00 | 0.00 | 0.00 | 47 | 1008.1 |
| 20260503233521 | 51 | 360 | 0.0 | 2.6 | 0.00 | 0.00 | 0.00 | 46 | 1008.2 |
| 20260503233038 | 51 | 360 | 0.0 | 2.6 | 0.00 | 0.00 | 0.00 | 47 | 1008.1 |
| 20260503232520 | 51 | 0 | 0.0 | 3.5 | 0.00 | 0.00 | 0.00 | 46 | 1008.1 |
| 20260503232020 | 51 | 360 | 0.9 | 3.5 | 0.00 | 0.00 | 0.00 | 45 | 1008.0 |
| 20260503231546 | 52 | 360 | 0.0 | 2.6 | 0.00 | 0.00 | 0.00 | 46 | 1008.0 |
| 20260503231018 | 52 | 360 | 0.0 | 3.5 | 0.00 | 0.00 | 0.00 | 44 | 1007.9 |
| 20260503230520 | 52 | 360 | 0.9 | 3.5 | 0.00 | 0.00 | 0.00 | 44 | 1008.0 |
| 20260503230033 | 52 | 0 | 0.0 | 3.5 | 0.00 | 0.00 | 0.00 | 44 | 1008.0 |
| 20260503225524 | 52 | 0 | 0.0 | 4.3 | 0.00 | 0.00 | 0.00 | 44 | 1007.9 |
| 20260503225025 | 52 | 360 | 0.9 | 4.3 | 0.00 | 0.00 | 0.00 | 44 | 1008.0 |
| 20260503224536 | 52 | 360 | 1.7 | 4.3 | 0.00 | 0.00 | 0.00 | 44 | 1008.0 |
| 20260503224021 | 52 | 0 | 0.9 | 5.2 | 0.00 | 0.00 | 0.00 | 45 | 1008.0 |
| 20260503223521 | 52 | 360 | 1.7 | 5.2 | 0.00 | 0.00 | 0.00 | 35 | 1008.0 |
| 20260503223039 | 52 | 360 | 0.9 | 7.0 | 0.00 | 0.00 | 0.00 | 43 | 1008.0 |
| 20260503222521 | 52 | 0 | 0.9 | 13.9 | 0.00 | 0.00 | 0.00 | 45 | 1008.0 |
| 20260503222020 | 52 | 360 | 1.7 | 13.9 | 0.00 | 0.00 | 0.00 | 45 | 1008.0 |
| 20260503221538 | 53 | 360 | 3.5 | 13.9 | 0.00 | 0.00 | 0.00 | 42 | 1008.0 |
| 20260503221022 | 52 | 360 | 1.7 | 9.6 | 0.00 | 0.00 | 0.00 | 43 | 1008.0 |
| 20260503220524 | 53 | 360 | 2.6 | 9.6 | 0.00 | 0.00 | 0.00 | 43 | 1007.9 |
| 20260503220040 | 52 | 360 | 1.7 | 11.3 | 0.00 | 0.00 | 0.00 | 43 | 1008.0 |
| 20260503215521 | 52 | 360 | 1.7 | 11.3 | 0.00 | 0.00 | 0.00 | 44 | 1007.9 |
| 20260503215021 | 52 | 360 | 3.5 | 11.3 | 0.00 | 0.00 | 0.00 | 43 | 1008.1 |
| 20260503214544 | 52 | 360 | 1.7 | 10.4 | 0.00 | 0.00 | 0.00 | 46 | 1008.0 |
| 20260503214024 | 52 | 360 | 2.6 | 10.4 | 0.00 | 0.00 | 0.00 | 45 | 1008.0 |
| 20260503213521 | 51 | 360 | 0.9 | 8.7 | 0.00 | 0.00 | 0.00 | 46 | 1008.0 |
| 20260503213052 | 51 | 360 | 2.6 | 8.7 | 0.00 | 0.00 | 0.00 | 45 | 1008.0 |
| 20260503212521 | 51 | 360 | 1.7 | 11.3 | 0.00 | 0.00 | 0.00 | 45 | 1007.9 |
| 20260503212020 | 51 | 360 | 3.5 | 11.3 | 0.00 | 0.00 | 0.00 | 45 | 1008.0 |
| 20260503211556 | 51 | 360 | 2.6 | 11.3 | 0.00 | 0.00 | 0.00 | 45 | 1007.9 |
| 20260503211026 | 51 | 360 | 4.3 | 13.9 | 0.00 | 0.00 | 0.00 | 45 | 1008.0 |
| 20260503210521 | 52 | 360 | 1.7 | 13.9 | 0.00 | 0.00 | 0.00 | 44 | 1007.9 |
| 20260503210036 | 52 | 360 | 5.2 | 13.9 | 0.00 | 0.00 | 0.00 | 44 | 1007.9 |
| 20260503205521 | 53 | 360 | 4.3 | 9.6 | 0.00 | 0.00 | 0.00 | 43 | 1007.8 |
| 20260503205024 | 53 | 360 | 2.6 | 12.2 | 0.00 | 0.00 | 0.00 | 34 | 1007.8 |
| 20260503204552 | 53 | 360 | 5.2 | 13.0 | 0.00 | 0.00 | 0.00 | 42 | 1007.8 |
| 20260503204020 | 53 | 360 | 4.3 | 13.0 | 0.00 | 0.00 | 0.00 | 42 | 1007.7 |
| 20260503203520 | 53 | 360 | 3.5 | 11.3 | 0.00 | 0.00 | 0.00 | 43 | 1007.7 |
| 20260503203037 | 54 | 360 | 4.3 | 10.4 | 0.00 | 0.00 | 0.00 | 42 | 1007.7 |
| 20260503202521 | 53 | 360 | 1.7 | 10.4 | 0.00 | 0.00 | 0.00 | 43 | 1007.6 |
| 20260503202021 | 53 | 360 | 2.6 | 10.4 | 0.00 | 0.00 | 0.00 | 43 | 1007.6 |
| 20260503201539 | 53 | 360 | 1.7 | 8.7 | 0.00 | 0.00 | 0.00 | 43 | 1007.8 |
| 20260503201020 | 53 | 0 | 2.6 | 10.4 | 0.00 | 0.00 | 0.00 | 44 | 1007.5 |
| 20260503200520 | 53 | 360 | 4.3 | 10.4 | 0.00 | 0.00 | 0.00 | 42 | 1007.6 |
| 20260503200037 | 53 | 360 | 2.6 | 12.2 | 0.00 | 0.00 | 0.00 | 43 | 1007.7 |
| 20260503195521 | 52 | 360 | 4.3 | 12.2 | 0.00 | 0.00 | 0.00 | 43 | 1007.8 |
| 20260503195020 | 52 | 360 | 2.6 | 11.3 | 0.00 | 0.00 | 0.00 | 43 | 1007.8 |
| 20260503194535 | 52 | 360 | 1.7 | 10.4 | 0.00 | 0.00 | 0.00 | 35 | 1007.7 |
| 20260503194020 | 52 | 360 | 2.6 | 11.3 | 0.00 | 0.00 | 0.00 | 44 | 1007.8 |
| 20260503193521 | 52 | 360 | 3.5 | 13.0 | 0.00 | 0.00 | 0.00 | 43 | 1007.8 |
| 20260503193034 | 52 | 360 | 4.3 | 13.0 | 0.00 | 0.00 | 0.00 | 43 | 1007.9 |
| 20260503192521 | 52 | 360 | 3.5 | 11.3 | 0.00 | 0.00 | 0.00 | 44 | 1007.9 |
| 20260503192020 | 52 | 360 | 3.5 | 9.6 | 0.00 | 0.00 | 0.00 | 43 | 1007.8 |
| 20260503191553 | 52 | 360 | 1.7 | 10.4 | 0.00 | 0.00 | 0.00 | 47 | 1007.8 |
| 20260503191022 | 51 | 360 | 3.5 | 10.4 | 0.00 | 0.00 | 0.00 | 36 | 1007.8 |
| 20260503190521 | 51 | 360 | 3.5 | 13.9 | 0.00 | 0.00 | 0.00 | 45 | 1007.9 |
| 20260503190037 | 51 | 360 | 5.2 | 13.9 | 0.00 | 0.00 | 0.00 | 44 | 1007.9 |
| 20260503185521 | 51 | 360 | 3.5 | 12.2 | 0.00 | 0.00 | 0.00 | 44 | 1007.9 |
| 20260503185020 | 51 | 360 | 2.6 | 13.9 | 0.00 | 0.00 | 0.00 | 44 | 1007.8 |
| 20260503184541 | 51 | 360 | 6.1 | 13.9 | 0.00 | 0.00 | 0.00 | 44 | 1007.8 |
| 20260503184021 | 52 | 360 | 5.2 | 13.9 | 0.00 | 0.00 | 0.00 | 44 | 1007.9 |
| 20260503183520 | 52 | 360 | 3.5 | 12.2 | 0.00 | 0.00 | 0.00 | 45 | 1007.9 |
| 20260503183042 | 52 | 360 | 4.3 | 12.2 | 0.00 | 0.00 | 0.00 | 46 | 1007.6 |
| 20260503182520 | 53 | 360 | 2.6 | 13.0 | 0.00 | 0.00 | 0.00 | 46 | 1007.7 |
| 20260503182021 | 52 | 360 | 3.5 | 13.9 | 0.00 | 0.00 | 0.00 | 45 | 1007.7 |
| 20260503181536 | 52 | 360 | 6.1 | 13.9 | 0.00 | 0.00 | 0.00 | 43 | 1007.8 |
| 20260503181021 | 53 | 360 | 3.5 | 10.4 | 0.00 | 0.00 | 0.00 | 45 | 1007.8 |
| 20260503180518 | 53 | 360 | 3.5 | 12.2 | 0.00 | 0.00 | 0.00 | 44 | 1007.6 |
| 20260503180037 | 53 | 360 | 4.3 | 13.9 | 0.00 | 0.00 | 0.00 | 35 | 1007.6 |
| 20260503175524 | 53 | 360 | 6.1 | 13.9 | 0.00 | 0.00 | 0.00 | 43 | 1007.8 |
| 20260503175020 | 53 | 360 | 2.6 | 11.3 | 0.00 | 0.00 | 0.00 | 44 | 1007.7 |
| 20260503174550 | 52 | 360 | 1.7 | 15.6 | 0.00 | 0.00 | 0.00 | 50 | 1008.0 |
| 20260503174021 | 51 | 360 | 5.2 | 15.6 | 0.00 | 0.00 | 0.00 | 46 | 1008.0 |
| 20260503173518 | 52 | 360 | 5.2 | 15.6 | 0.00 | 0.00 | 0.00 | 46 | 1007.9 |
| 20260503173035 | 52 | 360 | 4.3 | 14.8 | 0.00 | 0.00 | 0.00 | 46 | 1007.8 |
| 20260503172517 | 52 | 360 | 4.3 | 14.8 | 0.00 | 0.00 | 0.00 | 46 | 1007.7 |
| 20260503172020 | 52 | 360 | 4.3 | 15.6 | 0.00 | 0.00 | 0.00 | 46 | 1007.5 |
| 20260503171536 | 52 | 360 | 6.1 | 15.6 | 0.00 | 0.00 | 0.00 | 43 | 1007.5 |
| 20260503171020 | 52 | 360 | 6.1 | 14.8 | 0.00 | 0.00 | 0.00 | 44 | 1007.6 |
| 20260503170517 | 52 | 360 | 5.2 | 14.8 | 0.00 | 0.00 | 0.00 | 43 | 1007.4 |